Simultaneous Nadir Overpasses (SNOs) Predictions

Prediction of SNOs between GOES-16 and METOP-B Satellite Orbit:

Table of predicted SNOs for the next 14.0 days since TLE Epoch: 9/27/2019
Index Date Time (GOES-16) GOES-16 Lat,Lon METOP-B Lat,Lon Distance(km) Time Diff (sec)
1 09/28/2019 14:37:40 0.00, -75.20 0.48, -77.30 240.10 80
2 09/29/2019 14:19:41 0.00, -75.20 -0.64, -72.31 329.04 80
3 10/01/2019 02:36:01 -0.00, -75.19 -0.37, -76.91 195.53 80
4 10/02/2019 02:18:02 -0.00, -75.19 0.76, -71.92 373.92 80
5 10/03/2019 14:36:52 -0.00, -75.21 0.31, -76.46 144.21 80
6 10/04/2019 14:13:32 -0.00, -75.21 -0.82, -71.47 425.51 80
7 10/06/2019 02:35:13 0.00, -75.21 -0.19, -76.07 98.06 80
8 10/07/2019 02:11:53 0.00, -75.22 0.94, -71.08 472.06 80
9 10/08/2019 14:33:24 0.00, -75.24 0.07, -75.64 44.90 80
10 10/11/2019 02:29:04 -0.00, -75.27 0.01, -75.24 3.62 80




NCC Satellite Simultaneous Nadir Overpasses (SNOs) Prediction Service
